SL-16 DEB, 22327

Orbit data source: Space-Track

SL-16 DEB, 22327 is space debris in LEO originally from a launch on Fri, 25 Dec 1992 UTC launched from the Tyuratam Missile And Space Complex (TTMTR). Debris objects in space refer to the collection of defunct objects orbiting the Earth. Examples of debris include non-operational satellites, rocket bodies, and fragments generated from explosions, collisions, or faulty payload assembly.

Loading next visibility...
Identifier
22327, 1992-093Q
Orbit
LEO
Country
Flag of CISCIS
Related business
Manufacturer
Unknown
Mission
Spacecraft
Bus & Motor
Unknown
Mass
Unknown
Launch date (UTC)
1992-12-25 (33 years ago)
Launch vehicle
Unknown
Launch site
Tyuratam Missile And Space Complex (TTMTR)
Object type
Payload
Rocket body
Debris
Shape & HBR
Unknown shape, 0.6 m
Radar Cross Section
Medium (>0.1 m² and <1 m²)

Expand to show TLE details & history
Last TLE update: 14 hours ago

TLE from 14 hours ago
0 SL-16 DEB
1 22327U 92093Q   25347.66183312  .00011604  00000-0  94290-3 0  9999
2 22327  71.1149  72.4484 0061866 284.2129 187.8981 14.98233695735518
Epoch: 2025-12-13T15:53Z
TLE epoch observation values (Epoch: 2025-12-13T15:53:02.381Z)
Latitude
61.41533°
Longitude
-107.03763°
Altitude
624.926 km
Speed
7.529 km/s
True Right ascension
14h 15m 13s
True Declination
61° 16' 04"
Sunlit
Object was in daylight at epoch
Visualization orbit readout
Latitude
Unknown
Longitude
Unknown
Altitude
Unknown
Speed
Unknown
Apparent Right ascension
Unknown
Apparent Declination
Unknown
Sunlit
N/A
Visualization observer readout
Local Sidereal Time
03:58:56
Azimuth
Unknown
Elevation
Unknown
Doppler factor
Unknown
Orbital elements
Apogee altitude
613.172 km
Perigee altitude
527.199 km
Semi-major axis
6,948.323 km
Eccentricity
0.00619
Inclination
71.1149°
RAAN
72.4484°
Arg. of periapsis
284.2129°
True anomaly
187.80143°
Mean anomaly
187.8981°
Eccentric anomaly
187.84969°
Mean motion
3.74734 °/min
Orbital period
96.07 mins
BSTAR
0.0009429
Loading maneuver chart data...
Computing Atmospheric mass density...
Loading historical data...
Loading historical data...
Loading historical data...
Loading historical data...
Loading historical data...
Loading historical data...
Loading historical data...

Documentation

Showing up to 5 results
|